METEOR 2-5 DEB, 38273

Orbit data source: Space-Track

METEOR 2-5 DEB, 38273 is space debris in LEO originally from a launch on Wed, 31 Oct 1979 UTC launched from the Plesetsk Missile And Space Complex (PKMTR). Debris objects in space refer to the collection of defunct objects orbiting the Earth. Examples of debris include non-operational satellites, rocket bodies, and fragments generated from explosions, collisions, or faulty payload assembly.

Loading next visibility...
Identifier
38273, 1979-095BT
Orbit
LEO
Country
Flag of CISCIS
Related business
Manufacturer
Unknown
Mission
Spacecraft
Bus & Motor
Unknown
Mass
Unknown
Launch date (UTC)
1979-10-31 (46 years ago)
Launch vehicle
Unknown
Launch site
Plesetsk Missile And Space Complex (PKMTR)
Object type
Payload
Rocket body
Debris
Shape & HBR
Unknown shape, 0.1 m
Radar Cross Section
Small (<0.1 m²)

Expand to show TLE details & history
Last TLE update: 3 days ago

TLE from 3 days ago
0 METEOR 2-5 DEB
1 38273U 79095BT  25291.56207447  .00005686  00000-0  17965-2 0  9992
2 38273  81.2213   8.2560 0006942 169.6123 190.5209 14.40118875641132
Epoch: 2025-10-18T13:29Z
TLE epoch observation values (Epoch: 2025-10-18T13:29:23.234Z)
Latitude
-0.00002°
Longitude
138.61788°
Altitude
765.917 km
Speed
7.469 km/s
True Right ascension
00h 33m 01s
True Declination
0° 00' 00"
Sunlit
Object was in full shadow at epoch
Visualization orbit readout
Latitude
Unknown
Longitude
Unknown
Altitude
Unknown
Speed
Unknown
Apparent Right ascension
Unknown
Apparent Declination
Unknown
Sunlit
N/A
Visualization observer readout
Local Sidereal Time
08:35:03
Azimuth
Unknown
Elevation
Unknown
Doppler factor
Unknown
Orbital elements
Apogee altitude
760.193 km
Perigee altitude
750.289 km
Semi-major axis
7,133.378 km
Eccentricity
0.00069
Inclination
81.2213°
RAAN
8.256°
Arg. of periapsis
169.6123°
True anomaly
190.50639°
Mean anomaly
190.5209°
Eccentric anomaly
190.51364°
Mean motion
3.60247 °/min
Orbital period
99.93 mins
BSTAR
0.0017965
Loading maneuver chart data...
Computing Atmospheric mass density...

Documentation

Showing up to 5 results
|